Погода в Пукове

Украина / Ивано-Франковская область     49°23′59″N   24°41′33″E
темп.,
°C
ветер,
м/с
пор.,
м/с
влажн.,
%
обл.,
%
осадки,
мм/ч
давл.,
гПа
погр.,
м
6 мая, чт
чт600:00+8зсз5109484 1.1 1004465
03:00+6з51096100 2.9 1007605
06:00+6зсз61292100 0.0 1009848
09:00+7зсз711785 0.0 1012926
12:00+10зсз79535 0.0 10131507
15:00+13з6747100 0.0 10122153
18:00+9ссз137469 0.4 1013311
21:00+8ю2579100 0.9 101299
7 мая, пт
пт700:00+5ю348491 0.0 101349
03:00+5ю3381100 0.0 101223
06:00+5ююв3482100 0.0 101165
09:00+7ююв2585100 0.4 1009196
12:00+9ю41086100 0.8 1007420
15:00+12зюз5982100 1.2 1007546
18:00+12зюз5977100 0.3 1006636
21:00+9зсз41088100 0.5 1008363
8 мая, сб
сб800:00+8зсз71280100 0.1 1011947
03:00+4зсз61185100 0.1 1014856
06:00+3зсз71079100 0.1 10171038
09:00+5зсз71076100 0.1 10181043
12:00+5зсз81069100 0.1 10201242
15:00+6зсз61069100 0.1 10201247
18:00+8зсз69625 0.0 10201437
21:00+4зсз22830 0.1 102111
9 мая, вс
вс900:00+3зюз22865 0.0 102312
03:00+2юз22870 0.0 102411
06:00+1юз11855 0.0 102510
09:00+7ююз22675 0.0 1025265
12:00+12ююз33548 0.0 10241230
15:00+14ю2450100 0.0 10241753
18:00+14юв33605 0.0 1023934
21:00+9юв34785 0.0 102353
10 мая, пн
пн1000:00+7юв3137115 0.0 1024257
03:00+6юв36755 0.0 1023111
06:00+4вюв34840 0.0 102349
09:00+11юв69725 0.0 1023366
12:00+16юв796036 0.0 1022751
15:00+18юв79545 0.0 1020988
18:00+17юв7116563 0.0 1019833
21:00+12юв6147023 0.0 1020415